Tracking 17739 objects as of 27-June-2016
HD Live streaming from Space Station
objects crossing your sky now

TEAMSAT

Track TEAMSAT now!
10-day predictions
TEAMSAT is classified as:


NORAD ID: 25025
Int'l Code: 1997-066C
Perigee: 567.5 km
Apogee: 26,603.4 km
Inclination: 7.7 °
Period: 467.6 minutes
Semi major axis: 19956 km
RCS: 0.5073 m2 (medium)
Launch date: October 30, 1997
Source: European Space Agency (ESA)
Launch site: FRENCH GUIANA (FRGUI)
Your satellite tracking list
Your tracking list is empty





NASA's NSSDC Master Catalog

Two Line Element Set (TLE):
1 25025U 97066C   16174.47138693 -.00000131 +00000-0 -54038-3 0  9992
2 25025 007.6710 241.6214 6523197 053.5279 009.9250 03.07948937022820
Source of the keplerian elements: AFSPC

N2YO: 781